Change the Weather History Date:

Tuesday, October 9, 2012

  Actual Average Record
Temperature  
Mean Temperature 53 °F 56 °F  
Max Temperature 65 °F 68 °F 88 °F (2010)
Min Temperature 40 °F 44 °F 24 °F (2000)
Degree Days  
Heating Degree Days 12 10  
Month to date heating degree days 118 78  
Since 1 July heating degree days 207 170  
Cooling Degree Days 0 1  
Month to date cooling degree days 2 10  
Year to date cooling degree days 1286 935  
Growing Degree Days 2 (Base 50)    
Moisture  
Dew Point 40 °F    
Average Humidity 61    
Maximum Humidity 79    
Minimum Humidity 43    
Precipitation  
Precipitation T in 0.10 in 0.31 in (1997)
Month to date precipitation 1.10 0.89  
Year to date precipitation 22.27 31.45  
Sea Level Pressure  
Sea Level Pressure 30.00 in    
Wind  
Wind Speed 15 mph (SSW)    
Max Wind Speed 26 mph    
Max Gust Speed 32 mph    
Visibility 10 miles    
Events      
T = Trace of Precipitation, MM = Missing Value Source: NWS Daily Summary

Daily Weather History Graph

Daily Weather History Graph

Search for Another Location

Airport or City:

Trip Planner

Search our weather history database for the weather conditions in past years. The results will help you decide how hot, cold, wet, or windy it might be!

Date:

Astronomy

Oct. 09, 2012 Rise Set
Actual Time 6:57 AM CDT 6:21 PM CDT
Civil Twilight 6:30 AM CDT 6:48 PM CDT
Nautical Twilight 5:59 AM CDT 7:20 PM CDT
Astronomical Twilight 5:27 AM CDT 7:51 PM CDT
Moon 12:34 AM CDT (10/9) 2:49 PM CDT (10/9)
Length of Visible Light 12h 18m
Length of Day
11h 23m
Last Quarter, 36% of the Moon is Illuminated
Oct 9
Last Quarter
Oct 15
New
Oct 21
First Quarter
Oct 29
Full
Nov 6
Last Quarter

Hourly Weather History & Observations

Time (CDT) Temp. Windchill Dew Point Humidity Pressure Visibility Wind Dir Wind Speed Gust Speed Precip Events Conditions
12:53 AM 44.1 °F 37.7 °F 35.1 °F 71% 30.08 in 10.0 mi South 12.7 mph - N/A   Clear
1:53 AM 43.0 °F 37.2 °F 35.1 °F 74% 30.09 in 10.0 mi South 10.4 mph - N/A   Clear
3:53 AM 41.0 °F 34.7 °F 35.1 °F 79% 30.07 in 10.0 mi South 10.4 mph - N/A   Clear
4:53 AM 41.0 °F 34.7 °F 36.0 °F 82% 30.06 in 10.0 mi South 10.4 mph - N/A   Clear
5:53 AM 41.0 °F 34.7 °F 36.0 °F 82% 30.07 in 10.0 mi South 10.4 mph - N/A   Clear
6:53 AM 41.0 °F 34.7 °F 36.0 °F 82% 30.08 in 10.0 mi South 10.4 mph - N/A   Clear
7:53 AM 44.1 °F 38.1 °F 37.9 °F 79% 30.08 in 10.0 mi South 11.5 mph - N/A   Clear
8:53 AM 51.1 °F - 41.0 °F 68% 30.07 in 10.0 mi SSW 17.3 mph 21.9 mph N/A   Clear
9:53 AM 55.9 °F - 42.1 °F 60% 30.05 in 10.0 mi SSW 18.4 mph - N/A   Clear
10:53 AM 60.1 °F - 42.1 °F 51% 30.04 in 10.0 mi SSW 18.4 mph - N/A   Clear
11:53 AM 63.0 °F - 42.1 °F 46% 30.02 in 10.0 mi SSW 20.7 mph 27.6 mph N/A   Clear
12:53 PM 64.0 °F - 41.0 °F 43% 29.99 in 10.0 mi SW 20.7 mph 28.8 mph N/A   Clear
1:53 PM 64.9 °F - 41.0 °F 42% 29.96 in 10.0 mi South 20.7 mph 28.8 mph N/A   Clear
2:53 PM 64.0 °F - 41.0 °F 43% 29.94 in 10.0 mi SSW 16.1 mph 26.5 mph N/A   Clear
3:53 PM 63.0 °F - 41.0 °F 45% 29.93 in 10.0 mi South 21.9 mph 26.5 mph N/A   Clear
4:53 PM 64.0 °F - 42.1 °F 45% 29.93 in 10.0 mi SSW 18.4 mph - N/A   Clear
5:53 PM 60.1 °F - 42.1 °F 51% 29.92 in 10.0 mi SSW 15.0 mph - N/A   Clear
6:53 PM 55.9 °F - 42.1 °F 60% 29.93 in 10.0 mi South 10.4 mph - N/A   Clear
7:53 PM 53.1 °F - 43.0 °F 69% 29.92 in 10.0 mi South 10.4 mph - N/A   Clear
8:53 PM 54.0 °F - 43.0 °F 66% 29.91 in 10.0 mi South 13.8 mph - N/A   Clear
9:53 PM 55.0 °F - 44.1 °F 67% 29.91 in 10.0 mi SSW 12.7 mph - N/A   Overcast
10:37 PM 53.6 °F - 44.6 °F 72% 29.94 in 10.0 mi WNW 13.8 mph 24.2 mph N/A   Overcast
10:53 PM 50.0 °F - 41.0 °F 71% 29.96 in 10.0 mi NW 17.3 mph 24.2 mph N/A   Overcast
11:53 PM 48.9 °F - 41.0 °F 74% 29.98 in 10.0 mi NW 13.8 mph - N/A   Overcast